378  
ASUS41 KPHI 230612  
RWRPHI  
 
REGIONAL WEATHER ROUNDUP  
NATIONAL WEATHER SERVICE MOUNT HOLLY NJ  
200 AM EDT THU MAR 23 2017  
 
NOTE: "FAIR" INDICATES FEW OR NO CLOUDS BELOW 12,000 FEET WITH NO  
SIGNIFICANT WEATHER AND/OR S TO VISIBILITY
.  
 
* = STATION DOES NOT REPORT PRECIPITATION (E.G. RAIN, SNOW, ETC.)  
OR FOG.
 
 
NJZ015>026-230700-  
SOUTHERN NEW JERSEY  
 
CITY SKY/WX TMP DP RH WIND PRES REMARKS
 
POMONA CLEAR 24 -2 32 N9 30.50R WCI 14  
6HR MIN TEMP: 23; 6HR MAX TEMP: 33;  
 
WILDWOOD* CLEAR 29 1 30 N9 30.50R WCI 20  
MILLVILLE CLEAR 27 -1 30 N9 30.50R WCI 18  
WRIGHTSTOWN PTCLDY 23 0 37 NW9 30.47R WCI 13  
MOUNT HOLLY PTCLDY 24 0 35 NW8 30.51R WCI 15  
TRENTON CLEAR 22 2 42 N7 30.49R WCI 13  
6HR MIN TEMP: 22; 6HR MAX TEMP: 30;  
 

 
NJZ001>014-230700-  
NORTHERN NEW JERSEY  
 
CITY SKY/WX TMP DP RH WIND PRES REMARKS
 
SUSSEX CLEAR 20 5 52 CALM 30.45S  
ANDOVER* N/A 19 4 51 N6 30.46S WCI 11  
MORRISTOWN CLEAR 21 5 49 NW9 30.48S WCI 11  
NEWARK CLEAR 24 2 38 NW10G17 30.49R WCI 14  
TETERBORO CLEAR 24 5 44 NW15G25 30.47S WCI 11  
CALDWELL CLEAR 22 4 46 NW8G18 30.48S WCI 12  
SOMERVILLE PTCLDY 21 3 45 CALM 30.49R  
ALLAIRE* CLEAR N/A N/A N/A NW10 30.49R  
TOMS RIVER* CLEAR 21 2 43 NW5 30.51R WCI 15  
 

 
PAZ043-044-047-054-055-060>062-066>071-230700-  
EASTERN PENNSYLVANIA  
 
CITY SKY/WX TMP DP RH WIND PRES REMARKS
 
PHILADELPHIA PTCLDY 26 1 34 N13 30.53R WCI 15  
6HR MIN TEMP: 26; 6HR MAX TEMP: 34;  
 
NORTH PHILA PTCLDY 24 3 40 N7 30.53R WCI 16  
BLUE BELL* CLEAR 23 5 46 N5 30.50R WCI 17  
QUAKERTOWN* CLEAR 23 5 46 N7 30.50R WCI 15  
PERKASIE* FAIR 21 3 45 NW8 30.49S WCI 12  
POTTSTOWN PTCLDY 22 2 42 CALM 30.52R  
LANCASTER CLEAR 25 3 38 CALM 30.50R  
COATESVILLE CLEAR 25 1 36 N3 30.49R  
READING CLEAR 24 5 44 N8 30.50R WCI 15  
6HR MIN TEMP: 24; 6HR MAX TEMP: 31;  
 
ALLENTOWN CLEAR 22 4 46 NW9 30.50R WCI 12  
6HR MIN TEMP: 21; 6HR MAX TEMP: 29;  
 
MOUNT POCONO CLEAR 13 3 64 NW15G22 30.34S WCI -3  
6HR MIN TEMP: 13; 6HR MAX TEMP: 16;  
 
HAZLETON CLEAR 18 1 49 NW7 30.43S WCI 8  
LEHIGHTON FAIR 19 9 63 CALM 30.50S  
WILKES BARRE CLEAR 19 4 51 CALM 30.46S  
 

 
DEZALL-MDZ008-012-015-019-020-230700-  
DELAWARE AND EASTERN MARYLAND  
 
CITY SKY/WX TMP DP RH WIND PRES REMARKS
 
WILMINGTON CLEAR 25 4 40 N9 30.52R WCI 15  
6HR MIN TEMP: 24; 6HR MAX TEMP: 34;  
 
DOVER PTCLDY 26 8 45 N10 30.49S WCI 16  
GEORGETOWN CLEAR 31 6 35 N10 30.49S WCI 22  
6HR MIN TEMP: 30; 6HR MAX TEMP: 38;  
 
EASTON CLEAR 30 5 34 NE7 30.53S WCI 23  
PATUXENT PTCLDY 32 10 40 NE17 30.49R WCI 21  
OCEAN CITY CLEAR 32 9 38 N13G21 30.48R WCI 22  
WALLOPS ISLAND CLEAR 30 9 41 N7 30.49R WCI 23  
CAMBRIDGE CLEAR 32 3 29 N9 30.50R WCI 24  
SALISBURY CLEAR 29 7 39 N9 30.48R WCI 20  
 

 
PAZ001-021-NYZ056-072-MDZ011-DCZ001-230700-  
OTHER NEARBY LOCATIONS  
 
CITY SKY/WX TMP DP RH WIND PRES REMARKS
 
HARRISBURG CLEAR 27 4 37 N5 30.50R WCI 22  
STATE COLLEGE CLEAR 21 5 48 N6 30.47S WCI 14  
WILLIAMSPORT CLEAR 23 3 42 W7 30.50S WCI 15  
BINGHAMTON CLEAR 12 3 67 NW6 30.39S WCI 3  
NEW YORK CITY CLEAR 23 3 42 VRB7G17 30.49R WCI 15  
BALTIMORE CLEAR 30 3 31 NE5 30.50R WCI 25  
WASHINGTON DC CLEAR 35 7 31 NE10 30.51R WCI 27  
 

 
 
 
CLICK HERE TO GO TO PREVIOUS BULLETINS.

The Nexlab PA Page
The Nexlab NJ Page
The Nexlab DE Page
The Nexlab MD Page Main Text Page